This demonstration page uses our WeatherBlox Daily Observations layout. Learn more.

41.55636, -103.73856

Hourly Observations for August 16, 2019

Temp ( °F °C ) Dew Point ( °F °C ) Humidity (%) Winds ( mph kmh ) Pressure ( in mb ) Visibility ( mi km ) Precip ( " mm )
12:44 am 00:44 Mostly Clear with Nearby Thunderstorms 64 18 57 14 78 78 N 17 28 29.91 1013 10 16.09344 0 0
12:53 am 00:53 Partly Cloudy 67 19.4 57 13.9 71 71 NE 6 9 29.88 1012 10 16.09344 0 0
1:33 am 01:33 Cloudy with Nearby Thunderstorms 63 17.2 57 13.9 81 81 NE 22 35 29.85 1011 10 16.09344 0 0
1:40 am 01:40 Cloudy with Thunderstorms 63 17.2 56 13.3 78 78 NNW 22 35 29.91 1013 10 16.09344 0 0
1:46 am 01:46 Cloudy with Heavy Thunderstorms 57 14 55 13 94 94 N 23 37 30 1016 1.5 2.414016 0 0
1:51 am 01:51 Cloudy with Heavy Thunderstorms 55 13 55 13 100 100 NE 25 41 29.97 1015 0.75 1.207008 0.41 10.414
1:53 am 01:53 Cloudy with Heavy Thunderstorms 56 13.3 55 12.8 97 97 NE 23 37 29.91 1013 0.75 1.207008 0.48 12.192
1:55 am 01:55 Cloudy with Heavy Thunderstorms 56 13.3 55 12.8 97 97 NE 21 33 29.97 1015 1 1.609344 0.03 0.762
1:59 am 01:59 Cloudy with Light Thunderstorms 56 13.3 55 12.8 97 97 ENE 18 30 29.94 1014 2 3.218688 0.04 1.016
2:07 am 02:07 Mostly Cloudy with Nearby Thunderstorms 58 14.4 57 13.9 97 97 E 16 26 29.91 1013 9 14.484096 0.05 1.27
2:17 am 02:17 Partly Cloudy 58 14.4 57 13.9 97 97 undefined N/A 29.91 1013 10 16.09344 0.05 1.27
2:53 am 02:53 Cloudy 59 15 59 15 100 100 Calm 29.88 1012 10 16.09344 0.05 1.27
3:53 am 03:53 Mostly Cloudy 59 15 59 15 100 100 NNE 3 6 29.94 1014 10 16.09344 0 0
4:53 am 04:53 Cloudy 59 15 57 13.9 93 93 undefined N/A 29.94 1014 10 16.09344 0 0
5:53 am 05:53 Cloudy 59 15 56 13.3 90 90 undefined N/A 29.94 1014 10 16.09344 0 0
6:53 am 06:53 Cloudy 59 15 56 13.3 90 90 E 7 11 29.94 1014 10 16.09344 0 0
7:53 am 07:53 Cloudy 61 16.1 55 12.8 81 81 Calm 29.97 1015 10 16.09344 0 0
8:53 am 08:53 Sunny 63 17.2 57 13.9 81 81 S 7 11 29.94 1014 10 16.09344 0 0
9:50 am 09:50 Mostly Cloudy 66 19 57 14 73 73 S 5 7 29.88 1012 10 16.09344 0 0
9:53 am 09:53 Mostly Cloudy 66 18.9 58 14.4 75 75 S 5 7 29.91 1013 10 16.09344 0 0
10:53 am 10:53 Cloudy 72 22.2 59 15 64 64 SW 9 15 29.91 1013 10 16.09344 0 0
11:07 am 11:07 Cloudy 73 22.8 59 15 62 62 SW 10 17 29.8 1009 10 16.09344 0 0
11:53 am 11:53 Mostly Sunny 76 24.4 59 15 56 56 VRB 5 7 29.85 1011 10 16.09344 0 0
12:53 pm 12:53 Mostly Sunny 80 26.7 61 16.1 52 52 SW 9 15 29.8 1009 10 16.09344 0 0
1:53 pm 13:53 Sunny 81 27.2 60 15.6 49 49 VRB 5 7 29.8 1009 10 16.09344 0 0
2:53 pm 14:53 Sunny 82 27.8 60 15.6 47 47 E 7 11 29.77 1008 10 16.09344 0 0
3:53 pm 15:53 Sunny 83 28.3 61 16.1 48 48 E 10 17 29.74 1007 10 16.09344 0 0
4:53 pm 16:53 Sunny 83 28.3 62 16.7 49 49 ESE 13 20 29.74 1007 10 16.09344 0 0
5:53 pm 17:53 Sunny 78 25.6 63 17.2 60 60 ESE 7 11 29.74 1007 10 16.09344 0 0
6:17 pm 18:17 Partly Cloudy with Nearby Thunderstorms 76 24.4 64 17.8 67 67 ESE 7 11 29.65 1004 10 16.09344 0 0
6:32 pm 18:32 Mostly Cloudy with Light Rain 76 24.4 64 17.8 67 67 SE 8 13 29.68 1005 10 16.09344 0.001 0.001
6:36 pm 18:36 Mostly Cloudy with Heavy Rain 73 22.8 65 18.3 76 76 E 9 15 29.68 1005 1.75 2.816352 0.05 1.27
6:44 pm 18:44 Cloudy with Light Rain 72 22 64 18 78 78 E 10 17 29.71 1006 3 4.828032 0 0
6:53 pm 18:53 Partly Cloudy 71 21.7 66 18.9 84 84 E 9 15 29.77 1008 10 16.09344 0.12 3.048
7:53 pm 19:53 Sunny 70 21.1 66 18.9 87 87 E 5 7 29.74 1007 10 16.09344 0 0
8:53 pm 20:53 Clear 68 20 64 17.8 87 87 ESE 9 15 29.77 1008 10 16.09344 0 0
9:53 pm 21:53 Clear 67 19.4 61 16.1 81 81 ESE 7 11 29.77 1008 10 16.09344 0 0
10:53 pm 22:53 Clear 65 18.3 62 16.7 90 90 E 13 20 29.77 1008 10 16.09344 0 0
11:53 pm 23:53 Clear 64 17.8 61 16.1 90 90 ESE 8 13 29.77 1008 10 16.09344 0 0

Powered by AerisWeather